W8AN Weather Reports


time (UTC)temp
F
wind
direction
speed
knots
gust
knots
rain 1hr
in
rain 24hr
in
rain mn
in
humidity
%
barometer
mb
20260506044821 46 317 0.0 0.0 0.00 0.02 0.02 85 4264.1
20260506044320 46 333 0.0 0.0 0.07 0.02 0.02 85 4264.0
20260506043816 46 309 0.9 2.6 0.07 0.02 0.02 85 4264.0
20260506043314 48 274 0.0 0.0 0.07 0.02 0.02 85 4264.1
20260506042812 48 290 0.0 0.0 0.05 0.01 0.01 85 4263.7
20260506042311 48 280 0.0 0.0 0.05 0.01 0.01 85 4264.1
20260506041809 48 272 0.0 0.0 0.00 0.00 0.00 85 4263.7
20260506041305 48 262 0.0 0.0 0.00 0.00 0.00 85 4264.1
20260506040803 48 240 0.0 0.0 0.00 0.00 0.00 85 4263.6
20260506040300 48 262 0.0 0.0 0.07 0.00 0.00 86 4263.7
20260506035756 48 275 0.0 0.0 0.07 0.59 0.59 86 4264.0
20260506035253 48 271 0.0 0.0 0.00 0.58 0.58 86 4264.0
20260506034750 48 270 0.0 0.0 0.00 0.58 0.58 86 4264.2
20260506034248 48 262 0.0 0.0 0.00 0.58 0.58 86 4264.1
20260506033744 48 272 0.0 0.0 0.00 0.58 0.58 86 4263.9
20260506033242 48 257 0.0 0.0 0.00 0.58 0.58 86 4263.9
20260506032738 48 280 0.0 0.0 0.00 0.58 0.58 86 4264.1
20260506032235 48 279 0.0 0.0 0.00 0.58 0.58 86 4263.9
20260506031726 48 285 0.0 0.0 0.00 0.58 0.58 86 4264.1
20260506031224 48 284 0.0 0.0 0.05 0.58 0.58 86 4264.2
20260506030722 48 265 0.0 0.0 0.05 0.58 0.58 86 4264.2
20260506030219 48 283 0.0 0.0 0.00 0.57 0.57 86 4264.1
20260506025716 48 291 0.0 0.0 0.00 0.57 0.57 86 4264.3
20260506025212 48 293 0.0 0.0 0.07 0.57 0.57 86 4264.2
20260506024709 48 292 0.0 0.0 0.07 0.57 0.57 86 4264.1
20260506024206 48 286 0.0 0.0 0.00 0.56 0.56 86 4264.4
20260506023702 48 280 0.0 0.0 0.05 0.56 0.56 86 4264.1
20260506023200 48 291 0.0 0.0 0.05 0.56 0.56 86 4264.2
20260506022656 48 293 0.0 0.0 0.00 0.55 0.55 86 4264.0
20260506022154 48 292 0.0 0.0 0.07 0.55 0.55 85 4264.0
20260506021652 48 283 0.0 0.0 0.07 0.55 0.55 85 4264.1
20260506021149 48 281 0.0 0.0 0.00 0.54 0.54 85 4264.1
20260506020646 48 276 0.0 0.0 0.05 0.54 0.54 85 4264.3
20260506020143 48 250 0.0 0.0 0.12 0.54 0.54 85 4264.1
20260506015640 48 260 0.0 0.0 0.07 0.53 0.53 85 4264.2
20260506015137 48 280 0.0 0.0 0.05 0.52 0.52 85 4264.1
20260506014635 48 229 0.0 0.0 0.05 0.52 0.52 85 4263.7
20260506014130 48 259 0.0 0.0 0.07 0.51 0.51 85 4264.1
20260506013629 48 259 0.0 0.0 0.14 0.51 0.51 85 4263.9
20260506013125 48 272 0.0 0.0 0.07 0.50 0.50 85 4263.9
20260506012622 48 270 0.0 0.0 0.12 0.50 0.50 85 4263.6
20260506012118 48 280 0.0 0.0 0.12 0.49 0.49 85 4263.5
20260506011616 48 280 2.6 2.6 0.07 0.48 0.48 85 4263.6
20260506011112 48 265 0.0 0.0 0.05 0.47 0.47 85 4263.6
20260506010612 48 281 0.0 0.0 0.05 0.47 0.47 85 4263.7
20260506010108 48 262 0.0 0.0 0.00 0.46 0.46 85 4263.6
20260506005605 48 264 0.0 0.0 0.07 0.46 0.46 85 4263.4
20260506005101 48 274 0.0 0.0 0.07 0.46 0.46 85 4263.4
20260506004558 48 244 0.0 0.0 0.00 0.45 0.45 85 4263.5
20260506004055 48 267 0.0 0.0 0.05 0.45 0.45 85 4263.5
20260506003551 48 281 0.0 0.0 0.05 0.45 0.45 85 4263.2
20260506003048 48 273 0.0 0.0 0.00 0.44 0.44 84 4263.3
20260506002543 48 283 0.0 0.0 0.07 0.44 0.44 84 4263.3
20260506002040 48 279 0.0 0.0 0.12 0.44 0.44 84 4263.4
20260506001536 48 284 0.0 0.0 0.12 0.43 0.43 84 4263.2
20260506001033 48 288 0.0 0.0 0.12 0.42 0.42 84 4263.4
20260506000531 48 283 0.0 0.0 0.19 0.41 0.41 84 4263.3
20260506000028 48 289 0.0 0.0 0.19 0.40 0.40 84 4263.4
20260505235526 48 285 0.0 0.0 0.12 0.38 0.38 84 4263.5
20260505235022 48 277 0.0 0.0 0.12 0.37 0.37 84 4263.3
20260505234520 48 275 0.0 0.9 0.17 0.36 0.36 83 4263.3
20260505234016 49 289 0.0 0.0 0.19 0.35 0.35 83 4263.2
20260505233514 49 252 0.0 0.0 0.07 0.33 0.33 83 4263.2
20260505233011 49 278 0.0 0.0 0.05 0.32 0.32 83 4263.4
20260505232509 49 280 0.0 0.0 0.12 0.32 0.32 83 4263.2
20260505232006 49 279 0.0 0.0 0.07 0.31 0.31 83 4263.3
20260505231503 49 263 0.0 0.0 0.12 0.31 0.31 83 4263.4
20260505231002 49 283 0.0 0.0 0.05 0.30 0.30 82 4263.3
20260505230459 49 284 0.0 0.0 0.00 0.29 0.29 82 4263.2
20260505225955 49 292 0.0 0.0 0.00 0.29 0.29 82 4263.2
20260505225452 49 297 0.0 0.0 0.00 0.29 0.29 82 4263.0
20260505224948 49 289 0.0 0.0 0.00 0.29 0.29 82 4263.2
20260505224445 49 313 0.0 0.0 0.00 0.29 0.29 82 4263.0
20260505223942 49 314 0.0 0.0 0.00 0.29 0.29 82 4262.8
20260505223439 49 317 0.0 0.9 0.00 0.29 0.29 82 4262.9
20260505222935 50 322 0.0 0.0 0.00 0.29 0.29 82 4263.1
20260505222432 50 324 0.0 0.0 0.00 0.29 0.29 83 4263.1
20260505221928 50 320 3.5 4.3 0.00 0.29 0.29 83 4263.0
20260505221425 49 322 0.0 0.0 0.00 0.29 0.29 83 4263.2
20260505220922 49 337 0.0 0.0 0.00 0.29 0.29 83 4262.9
20260505220419 49 325 0.9 1.7 0.07 0.29 0.29 83 4263.2
20260505215917 49 318 0.0 0.0 0.07 0.29 0.29 83 4262.9
20260505215415 50 325 4.3 5.2 0.00 0.28 0.28 83 4263.0
20260505214912 50 322 6.1 7.0 0.05 0.28 0.28 83 4262.8
20260505214410 49 335 5.2 7.0 0.12 0.28 0.28 83 4262.7
20260505213907 49 305 0.0 0.0 0.14 0.27 0.27 83 4263.1
20260505213405 50 317 0.0 0.0 0.07 0.26 0.26 83 4262.8
20260505212900 50 331 4.3 5.2 0.05 0.25 0.25 83 4262.9
20260505212358 49 326 7.0 7.8 0.05 0.25 0.25 83 4262.7
20260505211854 50 334 6.1 7.0 0.07 0.24 0.24 83 4262.8
20260505211351 50 331 7.8 7.8 0.07 0.24 0.24 83 4262.7
20260505210848 49 320 7.8 7.8 0.07 0.24 0.24 83 4262.8
20260505210345 50 329 8.7 8.7 0.05 0.23 0.23 83 4262.8
20260505205841 51 330 8.7 9.6 0.07 0.22 0.22 83 4263.0
20260505205340 51 336 6.1 7.0 0.07 0.22 0.22 83 4262.8
20260505204836 50 328 6.1 7.0 0.05 0.21 0.21 83 4262.8
20260505204334 50 319 6.1 7.0 0.12 0.21 0.21 83 4262.8
20260505203831 51 331 7.8 7.8 0.12 0.20 0.20 83 4262.7
20260505203328 51 327 13.0 17.4 0.12 0.19 0.19 82 4262.8
20260505202824 51 337 7.0 7.8 0.07 0.18 0.18 82 4262.7
20260505202320 51 331 5.2 7.0 0.12 0.18 0.18 82 4262.6
20260505201817 51 315 8.7 9.6 0.05 0.17 0.17 82 4262.8
20260505201315 51 324 4.3 5.2 0.07 0.16 0.16 82 4262.8
20260505200813 51 325 7.8 8.7 0.07 0.16 0.16 82 4262.8
20260505200309 52 331 6.1 7.0 0.05 0.15 0.15 82 4262.9
20260505195805 51 311 4.3 5.2 0.05 0.15 0.15 82 4263.2
20260505195305 52 285 6.1 7.8 0.00 0.14 0.14 82 4263.0
20260505194800 52 290 3.5 4.3 0.00 0.14 0.14 83 4262.8
20260505194257 52 264 2.6 4.3 0.00 0.14 0.14 82 4263.0
20260505193756 52 249 6.1 7.8 0.07 0.14 0.14 82 4263.2
20260505193255 52 265 3.5 4.3 0.07 0.14 0.14 83 4263.4
20260505192753 52 254 4.3 5.2 0.00 0.13 0.13 83 4263.2
20260505192250 52 230 4.3 5.2 0.00 0.13 0.13 83 4263.2
20260505191748 52 238 3.5 5.2 0.07 0.13 0.13 83 4263.4
20260505191247 51 254 4.3 6.1 0.07 0.13 0.13 82 4263.1
20260505190742 51 242 6.1 7.0 0.05 0.12 0.12 82 4263.4
20260505190237 51 231 0.9 4.3 0.05 0.12 0.12 82 4263.4
20260505185734 51 247 3.5 5.2 0.00 0.11 0.11 82 4263.5
20260505185231 52 231 7.0 7.8 0.07 0.11 0.11 82 4263.5
20260505184727 52 272 5.2 6.1 0.07 0.11 0.11 83 4263.5
20260505184225 53 253 0.0 1.7 0.05 0.10 0.10 83 4263.4
20260505183721 52 296 2.6 4.3 0.12 0.10 0.10 82 4262.7
20260505183219 52 255 5.2 6.1 0.12 0.09 0.09 82 4263.2
20260505182714 53 252 2.6 2.6 0.12 0.08 0.08 82 4262.9
20260505182212 53 242 2.6 2.6 0.12 0.07 0.07 81 4263.2
20260505181708 53 251 5.2 6.1 0.12 0.06 0.06 80 4263.0
20260505181206 53 230 3.5 6.1 0.07 0.05 0.05 80 4262.9
20260505180702 53 247 5.2 6.1 0.05 0.04 0.04 80 4262.9
20260505180159 53 277 2.6 4.3 0.12 0.04 0.04 79 4262.7
20260505175655 54 260 2.6 2.6 0.07 0.03 0.03 78 4262.7
20260505175151 54 258 1.7 1.7 0.00 0.02 0.02 77 4262.8
20260505174648 54 263 3.5 4.3 0.05 0.02 0.02 76 4262.5
20260505174144 55 244 2.6 4.3 0.05 0.02 0.02 75 4262.5
20260505173641 55 266 2.6 4.3 0.00 0.01 0.01 75 4262.3
20260505173138 55 230 7.0 7.8 0.00 0.01 0.01 72 4262.6
20260505172635 56 264 3.5 4.3 0.07 0.01 0.01 75 4262.7
20260505172132 56 274 2.6 2.6 0.07 0.01 0.01 74 4262.5
20260505171626 57 275 2.6 2.6 0.00 0.00 0.00 71 4262.5
20260505171124 57 259 2.6 4.3 0.00 0.00 0.00 70 4262.5
20260505170621 57 256 3.5 4.3 0.00 0.00 0.00 68 4262.6
20260505170117 58 269 6.1 7.0 0.00 0.00 0.00 67 4262.9
20260505165612 58 293 6.1 7.8 0.00 0.00 0.00 66 4262.7
20260505165108 58 300 7.0 8.7 0.00 0.00 0.00 65 4263.0
20260505164604 58 287 6.1 7.0 0.00 0.00 0.00 68 4262.7
20260505164102 58 263 5.2 6.1 0.00 0.00 0.00 69 4262.7
20260505163600 59 295 7.8 8.7 0.00 0.00 0.00 70 4262.6
20260505163057 59 275 6.1 8.7 0.00 0.00 0.00 72 4262.7
20260505162555 59 286 7.8 11.3 0.00 0.00 0.00 72 4262.7
20260505162053 59 281 8.7 9.6 0.00 0.00 0.00 71 4262.8
20260505161549 60 301 10.4 12.2 0.00 0.00 0.00 71 4262.5
20260505161047 60 262 7.8 11.3 0.00 0.00 0.00 71 4262.5
20260505160544 60 272 10.4 12.2 0.00 0.00 0.00 72 4262.6
20260505153021 60 265 6.1 6.1 0.00 0.00 0.00 74 4262.5
20260505152518 60 244 9.6 11.3 0.00 0.00 0.00 73 4262.4
20260505152013 61 238 9.6 13.0 0.00 0.00 0.00 73 4262.5
20260505151514 61 238 7.0 8.7 0.00 0.00 0.00 72 4262.2
20260505151011 61 231 8.7 12.2 0.00 0.00 0.00 72 4262.2
20260505150508 61 254 8.7 9.6 0.00 0.00 0.00 72 4262.3
20260505140433 62 221 12.2 13.0 0.00 0.00 0.00 71 4260.1
20260505124846 60 248 12.2 14.8 0.00 0.00 0.00 73 4260.1
20260505124343 60 221 10.4 13.9 0.00 0.00 0.00 73 4260.2
20260505123839 60 217 12.2 13.9 0.00 0.00 0.00 73 4260.4
20260505123336 60 207 13.0 17.4 0.00 0.00 0.00 73 4260.6
20260505122832 60 257 7.8 8.7 0.00 0.00 0.00 75 4260.4
20260505122330 59 224 10.4 15.6 0.00 0.00 0.00 76 4260.3
20260505121826 59 223 11.3 15.6 0.00 0.00 0.00 76 4260.0
20260505121324 59 294 9.6 12.2 0.00 0.00 0.00 76 4260.3
20260505120819 59 222 5.2 6.1 0.00 0.00 0.00 76 4260.1
20260505120316 58 252 7.8 7.8 0.00 0.00 0.00 77 4260.3
20260505115814 58 228 9.6 11.3 0.00 0.00 0.00 76 4260.1
20260505115312 58 219 11.3 13.0 0.00 0.00 0.00 77 4260.1
20260505114809 58 231 9.6 12.2 0.00 0.00 0.00 77 4260.4
20260505114306 58 214 8.7 12.2 0.00 0.00 0.00 77 4259.9
20260505113802 58 291 7.0 9.6 0.00 0.00 0.00 76 4259.9
20260505113258 58 241 9.6 11.3 0.00 0.00 0.00 76 4259.6
20260505112754 58 225 6.1 7.0 0.00 0.00 0.00 76 4259.6
20260505112253 58 256 4.3 6.1 0.00 0.00 0.00 77 4259.4
20260505111753 58 225 6.1 8.7 0.00 0.00 0.00 77 4259.1
20260505111249 58 232 7.8 9.6 0.00 0.00 0.00 77 4258.9
20260505110745 58 236 6.1 7.0 0.00 0.00 0.00 76 4258.8
20260505110243 58 226 6.1 7.8 0.00 0.00 0.00 77 4258.6
20260505102218 58 251 6.1 7.8 0.00 0.00 0.00 77 4258.1
20260505101717 59 221 7.8 9.6 0.00 0.00 0.00 76 4258.0
20260505101212 59 238 7.0 7.8 0.00 0.00 0.00 75 4257.9
20260505100709 59 213 7.0 7.8 0.00 0.00 0.00 75 4258.3
20260505100206 59 208 6.1 7.0 0.00 0.00 0.00 74 4258.1
20260505095701 59 209 8.7 12.2 0.00 0.00 0.00 74 4257.9
20260505095200 59 232 10.4 13.0 0.00 0.00 0.00 75 4258.0
20260505094655 59 185 7.0 12.2 0.00 0.00 0.00 75 4258.1
20260505094151 59 237 10.4 13.0 0.00 0.00 0.00 74 4258.2
20260505093648 59 211 9.6 12.2 0.00 0.00 0.00 74 4258.0
20260505093145 59 229 9.6 11.3 0.00 0.00 0.00 75 4258.3
20260505092642 59 219 7.0 7.8 0.00 0.00 0.00 75 4257.9
20260505092141 59 249 11.3 13.0 0.00 0.00 0.00 75 4258.0
20260505091638 59 214 7.8 11.3 0.00 0.00 0.00 75 4257.9
20260505091135 58 236 5.2 7.0 0.00 0.00 0.00 76 4258.0
20260505090633 59 239 4.3 6.1 0.00 0.00 0.00 76 4257.8
20260505090131 59 211 4.3 6.1 0.00 0.00 0.00 75 4257.9
20260505085628 59 214 6.1 8.7 0.00 0.00 0.00 75 4257.8
20260505085126 60 207 6.1 7.8 0.00 0.00 0.00 73 4258.0
20260505084624 60 217 7.8 9.6 0.00 0.00 0.00 74 4258.1
20260505084122 60 256 7.0 8.7 0.00 0.00 0.00 73 4257.7
20260505083619 60 222 7.0 7.8 0.00 0.00 0.00 73 4257.7
20260505083115 60 199 9.6 13.0 0.00 0.00 0.00 73 4257.4
20260505082611 60 278 8.7 9.6 0.00 0.00 0.00 74 4257.6
20260505082109 60 221 10.4 13.0 0.00 0.00 0.00 73 4257.8
20260505081605 61 217 10.4 12.2 0.00 0.00 0.00 72 4257.4
20260505081102 61 219 13.0 14.8 0.00 0.00 0.00 72 4257.3
20260505080558 61 247 14.8 18.2 0.00 0.00 0.00 71 4257.5
20260505080055 62 238 13.9 17.4 0.00 0.00 0.00 70 4257.5
20260505075550 62 251 13.0 13.9 0.00 0.00 0.00 67 4257.4
20260505075048 63 224 7.8 9.6 0.00 0.00 0.00 67 4257.4
20260505074544 64 206 9.6 11.3 0.00 0.00 0.00 65 4257.4
20260505074042 64 224 12.2 13.9 0.00 0.00 0.00 64 4257.3
20260505073539 63 229 12.2 15.6 0.00 0.00 0.00 64 4257.3
20260505073038 63 232 5.2 6.1 0.00 0.00 0.00 68 4256.9
20260505072533 62 202 7.0 7.8 0.00 0.00 0.00 68 4257.0
20260505072030 62 206 5.2 6.1 0.00 0.00 0.00 67 4256.9
20260505071525 62 225 4.3 5.2 0.00 0.00 0.00 69 4256.7
20260505071023 62 207 6.1 7.8 0.00 0.00 0.00 68 4256.8
20260505070520 62 247 4.3 5.2 0.00 0.00 0.00 69 4256.9
20260505070016 62 208 3.5 5.2 0.00 0.00 0.00 68 4256.8
20260505065512 62 228 5.2 7.0 0.00 0.00 0.00 68 4256.9
20260505065009 63 227 2.6 5.2 0.00 0.00 0.00 67 4257.0
20260505064506 63 241 5.2 6.1 0.00 0.00 0.00 65 4256.8
20260505064005 63 231 7.8 9.6 0.00 0.00 0.00 65 4257.6
20260505063501 64 238 7.8 8.7 0.00 0.00 0.00 64 4257.6
20260505062957 64 260 7.0 8.7 0.00 0.00 0.00 65 4257.7
20260505062454 64 252 5.2 7.0 0.00 0.00 0.00 65 4257.7
20260505061951 64 259 3.5 4.3 0.00 0.00 0.00 65 4257.4
20260505061449 64 285 1.7 2.6 0.00 0.00 0.00 66 4257.6
20260505060946 64 231 5.2 7.0 0.00 0.00 0.00 64 4257.6
20260505060443 64 239 2.6 2.6 0.00 0.00 0.00 64 4257.6
20260505055940 64 291 2.6 4.3 0.00 0.00 0.00 65 4257.8
20260505055436 65 276 3.5 4.3 0.00 0.00 0.00 64 4257.9
20260505054932 65 275 5.2 7.0 0.00 0.00 0.00 64 4257.9
20260505054430 66 290 7.0 8.7 0.00 0.00 0.00 62 4258.1
20260505053928 66 259 13.0 14.8 0.00 0.00 0.00 61 4258.1
20260505053425 67 275 7.8 9.6 0.00 0.00 0.00 59 4258.0
20260505052921 68 243 13.0 14.8 0.00 0.00 0.00 57 4257.9
20260505052418 67 249 12.2 13.9 0.00 0.00 0.00 59 4257.8
20260505051916 67 264 9.6 13.0 0.00 0.00 0.00 58 4257.9
20260505051413 68 197 6.1 7.8 0.00 0.00 0.00 58 4256.9
20260505050911 68 205 4.3 5.2 0.00 0.00 0.00 57 4256.5
20260505050409 68 207 8.7 9.6 0.00 0.00 0.00 57 4256.8